Location: Newark
(25.4800°N, 85.7200°E)
Time: 00:06:06
(UTC+00:00)

Hubble Space Telescope - Visible Passes

Search period start: 21 July 2019 00:00
Search period end: 31 July 2019 00:00
Orbit: 536 x 540 km, 28.5° (Epoch: 19 July)

Date Brightness Start Highest point End Pass type
(mag) Time Alt. Az. Time Alt. Az. Time Alt. Az.
23 Jul 3.1 22:03:57 12° SSE 22:04:32 12° SSE 22:06:09 10° SE visible
24 Jul 2.9 21:54:01 16° SSE 21:54:01 16° SSE 21:56:30 10° ESE visible
25 Jul 2.7 21:44:03 20° SE 21:44:03 20° SE 21:46:27 10° ESE visible
26 Jul 2.6 21:34:04 22° ESE 21:34:04 22° ESE 21:36:14 10° E visible
26 Jul 0.8 23:09:35 10° WSW 23:13:44 87° S 23:17:53 10° ENE visible
27 Jul 2.8 21:24:03 22° ESE 21:24:03 22° ESE 21:25:55 10° E visible
27 Jul 0.8 22:59:23 12° W 23:03:13 81° NNW 23:07:22 10° ENE visible
28 Jul 3.0 21:14:01 20° E 21:14:01 20° E 21:15:31 10° E visible
28 Jul 0.9 22:49:21 15° W 22:52:43 71° N 22:56:51 10° ENE visible
29 Jul 3.3 21:03:59 17° E 21:03:59 17° E 21:05:04 10° E visible
29 Jul 1.0 22:39:19 18° W 22:42:14 64° N 22:46:20 10° ENE visible
30 Jul 3.6 20:53:58 14° E 20:53:58 14° E 20:54:35 10° E visible
30 Jul 1.2 22:29:18 22° WNW 22:31:45 59° N 22:35:50 10° ENE visible
